Other Surface Observations
Issued by NWS Upton, NY

Home | Current Version | Previous Version | Text Only | Print | Product List | Glossary On
Versions: 1 2 3 4 5 6 7 8 9 10 11 12 13 14 15 16 17 18 19 20 21 22 23 24 25 26 27 28 29 30 31 32 33 34 35 36 37 38 39 40 41 42 43 44 45 46 47 48 49 50
000
SXUS51 KOKX 130657
OSOOKX
NEW YORK CITY METROPOLITAN WEATHER ROUNDUP
NATIONAL WEATHER SERVICE NEW YORK NY
300 AM EDT SUN JUL 13 2014


CITY           SKY/WX    TMP DP  RH WIND       PRES   REMARKS
CENTRAL PARK   PTCLDY    73  62  68 W8G16     30.13F
LAGUARDIA APRT MOCLDY    73  64  73 S9        30.10F
KENNEDY INTL   MOCLDY    70  68  93 S8        30.12F
NEWARK/LIBERTY MOCLDY    72  67  84 S13       30.10F
TETERBORO APRT PTCLDY    74  64  71 S5        30.09F
BNX BOT. GARD.   N/A     72  63  73 CALM      30.12R

>>>>>>>>>>>>>>>>>>>>>>>>>>>>>>>>> KEY <<<<<<<<<<<<<<<<<<<<<<<<<<<<<<<
> SKY/WX - SKY CONDITION/           : R : WCI - WIND CHILL INDEX    <
>          PRESENT WEATHER          : E : VSB - VISIBILITY IN MILES <
> TMP    - TEMPERATURE IN DEG F     : M : HX  - HEAT INDEX          <
> DP     - DEW POINT TEMPERATURE    : A : TC  - TEMPERATURE IN      <
> RH     - RELATIVE HUMIDITY        : R :       CELSIUS             <
> WIND   - DIRECTION/SPEED (MPH)    : K : VRB - VARIABLE WIND  DIR  <
> PRES   - PRESSURE (IN HG)         : S :                           <
>>>>>>>>>>>>>>>>>>>>>>>>>>>>>>>>> KEY <<<<<<<<<<<<<<<<<<<<<<<<<<<<<<<



USA.gov is the U.S. government's official web portal to all federal, state and local government web resources and services.